STARLINK-2015 (47638 NORAD) Tracking and Keplerian Element Data

This shows tracking and keplerian element data for the satellite.

Feedback or suggestion? Click here.




ElementValue
Catalog47638
NameSTARLINK-2015
Epoch Orbit282
Epoch Day60.16668981
Epoch Year2021
RAAN36.8241
Inclination53.0496
Eccentricity0.0007998
Argument of Perigee281.9496
Mean Anonmoly202.3019
Mean Motion15.86865326
Decay Rate0.00054936
L11 47638U 21012U 21060.16668981 .00054936 00000-0 21045-3 0 9990
L22 47638 53.0496 36.8241 0007998 281.9496 202.3019 15.86865326 2822

Live tracking and technical data element details for STARLINK-2015 (NORAD 47638). STARLINK-2015 can be tracked NOW for your location showing map with azimuth and elevation plus other details from your city location.

Track the satellite on the map from your city or location and see movement details for azimuth, elevation, latitude, longitude, range, height, and movement on the map or in text.







IsCatalogInMostPopularTable: catalog: 47638, numindb: 4
Update: records affected: 1



GetName: 47638 STARLINK-2015

Hit Count: updated at: Mon, 01 Mar 2021 15:36:30 GMT